Weather History for KMWO - March, 2013

Change the Weather History Date:

Sunday, March 31, 2013

  Actual Average (KDAY) Record (KDAY)
Temperature  
Mean Temperature 49 °F 46 °F  
Max Temperature 57 °F 56 °F 82 °F (1981)
Min Temperature 41 °F 36 °F 12 °F (1923)
Degree Days  
Heating Degree Days 16 19  
Month to date heating degree days 764  
Since 1 July heating degree days 5039  
Cooling Degree Days 0 0  
Month to date cooling degree days 0  
Year to date cooling degree days 0  
Moisture  
Dew Point 45 °F    
Average Humidity 86    
Maximum Humidity 100    
Minimum Humidity 57    
Precipitation  
Precipitation 0.00 in 0.13 in 0.82 in (1989)
Month to date precipitation 3.34  
Year to date precipitation 8.29  
Snow  
Snow 0.00 in 0.10 in 3.00 in (1962)
Month to date snowfall 3.4  
Since 1 July snowfall 22.7  
Snow Depth -    
Sea Level Pressure  
Sea Level Pressure 29.84 in    
Wind  
Wind Speed 4 mph (WSW)    
Max Wind Speed 15 mph    
Max Gust Speed 22 mph    
Visibility 8 miles    
Events      
T = Trace of Precipitation, MM = Missing Value Source: NWS Daily Summary

Daily Weather History Graph

Daily Weather History Graph

Search for Another Location

Airport or City:

Trip Planner

Search our weather history database for the weather conditions in past years. The results will help you decide how hot, cold, wet, or windy it might be!

Date:

Astronomy

Mar. 31, 2013 Rise Set
Actual Time 7:23 AM EDT 8:00 PM EDT
Civil Twilight 6:55 AM EDT 8:27 PM EDT
Nautical Twilight 6:24 AM EDT 9:00 PM EDT
Astronomical Twilight 5:51 AM EDT 9:33 PM EDT
Moon 12:04 AM EDT (3/31) 10:11 AM EDT (3/31)
Length of Visible Light 13h 32m
Length of Day
12h 37m
Waning Gibbous, 78% of the Moon is Illuminated
Mar 31
Waning Gibbous
Apr 3
Last Quarter
Apr 10
New
Apr 18
First Quarter
Apr 25
Full

Hourly Weather History & Observations

Time (EDT) Temp. Windchill Dew Point Humidity Pressure Visibility Wind Dir Wind Speed Gust Speed Precip Events Conditions
12:15 AM 45.7 °F - 40.5 °F 82% 29.95 in 10.0 mi Calm Calm - N/A   Clear
12:35 AM 45.1 °F - 40.6 °F 84% 29.95 in 10.0 mi Calm Calm - N/A   Clear
12:55 AM 42.6 °F - 38.7 °F 86% 29.94 in 10.0 mi Calm Calm - N/A   Clear
1:15 AM 42.1 °F - 38.1 °F 86% 29.93 in 10.0 mi Calm Calm - N/A   Clear
1:35 AM 41.9 °F - 38.3 °F 87% 29.92 in 10.0 mi Calm Calm - N/A   Clear
1:55 AM 42.8 °F - 38.8 °F 86% 29.92 in 10.0 mi Calm Calm - N/A   Scattered Clouds
2:15 AM 42.1 °F - 39.4 °F 90% 29.91 in 10.0 mi Calm Calm - N/A   Mostly Cloudy
2:35 AM 42.3 °F - 39.4 °F 90% 29.91 in 10.0 mi Calm Calm - N/A   Overcast
2:55 AM 46.8 °F - 42.3 °F 84% 29.90 in 10.0 mi Calm Calm - N/A   Overcast
3:15 AM 45.0 °F - 41.9 °F 89% 29.89 in 10.0 mi Calm Calm - N/A   Overcast
3:35 AM 45.1 °F - 42.3 °F 90% 29.88 in 10.0 mi Calm Calm - N/A   Overcast
3:55 AM 45.1 °F - 42.6 °F 91% 29.88 in 7.0 mi Calm Calm - N/A   Overcast
4:15 AM 44.1 °F - 42.6 °F 95% 29.87 in 5.0 mi Calm Calm - N/A   Unknown
4:35 AM 45.1 °F - 43.2 °F 93% 29.87 in 7.0 mi Calm Calm - N/A   Overcast
4:55 AM 45.1 °F - 44.6 °F 98% 29.86 in 7.0 mi Calm Calm - N/A   Unknown
5:15 AM 45.1 °F 43.7 °F 45.1 °F 100% 29.86 in 5.0 mi WSW 3.5 mph - N/A   Unknown
5:35 AM 45.1 °F - 45.1 °F 100% 29.85 in 5.0 mi Calm Calm - N/A   Unknown
5:55 AM 46.9 °F - 46.9 °F 100% 29.84 in 7.0 mi Calm Calm - N/A   Overcast
6:15 AM 47.7 °F - 47.7 °F 100% 29.84 in 7.0 mi Calm Calm - N/A   Overcast
6:35 AM 45.1 °F - 45.1 °F 100% 29.83 in 4.0 mi Calm Calm - N/A   Overcast
6:55 AM 44.2 °F - 44.2 °F 100% 29.83 in 2.5 mi Calm Calm - N/A   Overcast
7:15 AM 45.1 °F - 45.1 °F 100% 29.83 in 2.5 mi Calm Calm - N/A   Overcast
7:35 AM 45.1 °F - 45.1 °F 100% 29.83 in 2.0 mi Calm Calm - N/A   Overcast
7:55 AM 45.1 °F - 45.1 °F 100% 29.84 in 3.0 mi Calm Calm - N/A   Overcast
8:15 AM 45.1 °F - 45.1 °F 100% 29.84 in 3.0 mi Calm Calm - N/A   Light Drizzle
8:35 AM 47.7 °F - 47.7 °F 100% 29.84 in 2.0 mi WSW 3.5 mph - N/A   Overcast
8:55 AM 47.7 °F - 47.7 °F 100% 29.84 in 4.0 mi SW 3.5 mph - N/A   Overcast
9:15 AM 47.7 °F - 47.7 °F 100% 29.84 in 2.5 mi WSW 3.5 mph - N/A   Overcast
9:35 AM 47.7 °F - 47.7 °F 100% 29.83 in 3.0 mi SW 3.5 mph - N/A   Unknown
9:55 AM 47.7 °F - 47.7 °F 100% 29.83 in 3.0 mi SW 4.6 mph - N/A   Unknown
10:15 AM 47.7 °F - 47.7 °F 100% 29.83 in 5.0 mi SW 4.6 mph - N/A   Overcast
10:55 AM 47.7 °F - 47.7 °F 100% 29.83 in 7.0 mi SW 5.8 mph - N/A   Overcast
11:15 AM 47.7 °F - 47.7 °F 100% 29.84 in 5.0 mi SW 8.1 mph - N/A   Overcast
11:35 AM 47.7 °F - 47.7 °F 100% 29.84 in 7.0 mi WSW 6.9 mph - N/A   Overcast
11:55 AM 48.4 °F - 48.4 °F 100% 29.84 in 10.0 mi SW 6.9 mph - N/A   Overcast
12:15 PM 50.2 °F - 49.3 °F 97% 29.83 in 10.0 mi WSW 8.1 mph - N/A   Overcast
12:35 PM 52.7 °F - 50.9 °F 94% 29.83 in 10.0 mi WSW 11.5 mph - N/A   Overcast
12:55 PM 51.3 °F - 48.7 °F 91% 29.83 in 10.0 mi West 13.8 mph 17.3 mph N/A   Overcast
1:15 PM 52.7 °F - 49.6 °F 89% 29.83 in 10.0 mi WSW 10.4 mph - N/A   Overcast
1:35 PM 52.7 °F - 49.8 °F 90% 29.84 in 10.0 mi WSW 15.0 mph - N/A   Overcast
1:55 PM 52.7 °F - 49.5 °F 89% 29.83 in 10.0 mi West 10.4 mph - N/A   Overcast
2:15 PM 50.2 °F - 47.3 °F 90% 29.83 in 10.0 mi West 13.8 mph 18.4 mph N/A   Overcast
2:35 PM 52.7 °F - 49.5 °F 89% 29.83 in 10.0 mi West 12.7 mph - N/A   Overcast
2:55 PM 52.7 °F - 50.2 °F 91% 29.82 in 7.0 mi WSW 10.4 mph - N/A   Overcast
3:15 PM 52.7 °F - 47.7 °F 83% 29.81 in 10.0 mi West 12.7 mph 17.3 mph N/A   Mostly Cloudy
3:35 PM 54.9 °F - 48.4 °F 79% 29.80 in 10.0 mi WSW 11.5 mph 17.3 mph N/A   Mostly Cloudy
3:55 PM 55.4 °F - 46.9 °F 73% 29.80 in 10.0 mi West 11.5 mph 19.6 mph N/A   Mostly Cloudy
4:15 PM 56.8 °F - 45.5 °F 66% 29.80 in 10.0 mi WSW 10.4 mph 18.4 mph N/A   Mostly Cloudy
4:35 PM 55.6 °F - 44.2 °F 66% 29.79 in 10.0 mi WSW 15.0 mph - N/A   Mostly Cloudy
4:55 PM 56.7 °F - 44.8 °F 64% 29.79 in 10.0 mi SW 11.5 mph 20.7 mph N/A   Mostly Cloudy
5:15 PM 55.9 °F - 43.5 °F 63% 29.79 in 10.0 mi WSW 11.5 mph - N/A   Mostly Cloudy
5:35 PM 57.7 °F - 43.5 °F 59% 29.79 in 10.0 mi WSW 13.8 mph 21.9 mph N/A   Mostly Cloudy
5:55 PM 57.7 °F - 43.2 °F 58% 29.79 in 10.0 mi WSW 15.0 mph 21.9 mph N/A   Scattered Clouds
6:15 PM 57.7 °F - 42.8 °F 57% 29.79 in 10.0 mi WSW 13.8 mph - N/A   Scattered Clouds
6:35 PM 57.7 °F - 43.7 °F 60% 29.80 in 10.0 mi WSW 13.8 mph 21.9 mph N/A   Clear
6:55 PM 57.7 °F - 44.2 °F 61% 29.80 in 10.0 mi WSW 13.8 mph 20.7 mph N/A   Clear
7:15 PM 55.4 °F - 42.6 °F 62% 29.80 in 10.0 mi WSW 13.8 mph - N/A   Clear
7:35 PM 55.4 °F - 43.2 °F 63% 29.80 in 10.0 mi SW 12.7 mph - N/A   Clear
7:55 PM 52.7 °F - 43.3 °F 70% 29.80 in 10.0 mi SW 9.2 mph - N/A   Clear
8:15 PM 52.7 °F - 44.1 °F 72% 29.79 in 10.0 mi SW 9.2 mph - N/A   Clear
8:35 PM 50.2 °F - 43.3 °F 77% 29.79 in 10.0 mi SW 6.9 mph - N/A   Clear
8:55 PM 47.7 °F - 41.9 °F 80% 29.79 in 10.0 mi SW 6.9 mph - N/A   Clear
9:15 PM 47.7 °F - 42.6 °F 83% 29.79 in 10.0 mi SW 8.1 mph - N/A   Clear
9:35 PM 47.7 °F - 43.3 °F 85% 29.80 in 10.0 mi SW 8.1 mph - N/A   Clear
9:55 PM 47.7 °F - 44.2 °F 88% 29.81 in 10.0 mi WSW 5.8 mph - N/A   Mostly Cloudy
10:15 PM 50.4 °F - 44.8 °F 81% 29.83 in 10.0 mi NW 12.7 mph 19.6 mph N/A   Overcast
10:35 PM 52.7 °F - 46.8 °F 80% 29.83 in 10.0 mi NW 9.2 mph - N/A   Overcast
11:15 PM 50.2 °F - 45.0 °F 82% 29.82 in 10.0 mi West 6.9 mph - N/A   Mostly Cloudy
11:35 PM 47.7 °F - 43.2 °F 84% 29.82 in 10.0 mi WSW 6.9 mph - N/A   Scattered Clouds